Year,Month,Day,Hour,Minute,Value (Times are PST for temperature in C)
2020,05,09,00,00,14.00
2020,05,09,00,01,13.90
2020,05,09,00,02,13.90
2020,05,09,00,03,13.80
2020,05,09,00,04,13.80
2020,05,09,00,05,13.80
2020,05,09,00,06,13.70
2020,05,09,00,07,13.70
2020,05,09,00,08,13.70
2020,05,09,00,09,13.70
2020,05,09,00,10,13.60
2020,05,09,00,11,13.50
2020,05,09,00,12,13.50
2020,05,09,00,13,13.40
2020,05,09,00,14,13.40
2020,05,09,00,15,13.30
2020,05,09,00,16,13.30
2020,05,09,00,17,13.30
2020,05,09,00,18,13.20
2020,05,09,00,19,13.20
2020,05,09,00,20,13.10
2020,05,09,00,21,13.00
2020,05,09,00,22,13.00
2020,05,09,00,23,12.90
2020,05,09,00,24,12.80
2020,05,09,00,25,12.80
2020,05,09,00,26,12.80
2020,05,09,00,27,12.80
2020,05,09,00,28,12.80
2020,05,09,00,29,12.80
2020,05,09,00,30,12.70
2020,05,09,00,32,12.60
2020,05,09,00,33,12.60
2020,05,09,00,34,12.50
2020,05,09,00,35,12.50
2020,05,09,00,36,12.40
2020,05,09,00,37,12.40
2020,05,09,00,38,12.30
2020,05,09,00,39,12.30
2020,05,09,00,40,12.30
2020,05,09,00,42,12.30
2020,05,09,00,43,12.30
2020,05,09,00,44,12.30
2020,05,09,00,46,12.40
2020,05,09,00,47,12.40
2020,05,09,00,48,12.40
2020,05,09,00,49,12.50
2020,05,09,00,51,12.50
2020,05,09,00,52,12.60
2020,05,09,00,53,12.70
2020,05,09,00,54,12.80
2020,05,09,00,56,13.00
2020,05,09,00,57,13.20
2020,05,09,00,58,13.30
2020,05,09,00,59,13.50
2020,05,09,01,01,13.70
2020,05,09,01,02,13.80
2020,05,09,01,03,13.80
2020,05,09,01,04,13.90
2020,05,09,01,06,13.90
2020,05,09,01,07,14.00
2020,05,09,01,08,14.00
2020,05,09,01,09,14.00
2020,05,09,01,11,14.10
2020,05,09,01,12,14.10
2020,05,09,01,13,14.20
2020,05,09,01,14,14.20
2020,05,09,01,16,14.20
2020,05,09,01,17,14.20
2020,05,09,01,18,14.20
2020,05,09,01,19,14.20
2020,05,09,01,21,14.30
2020,05,09,01,22,14.30
2020,05,09,01,23,14.30
2020,05,09,01,24,14.30
2020,05,09,01,26,14.20
2020,05,09,01,27,14.20
2020,05,09,01,28,14.20
2020,05,09,01,29,14.20
2020,05,09,01,31,14.20
2020,05,09,01,32,14.20
2020,05,09,01,33,14.20
2020,05,09,01,34,14.20
2020,05,09,01,36,14.20
2020,05,09,01,37,14.20
2020,05,09,01,38,14.20
2020,05,09,01,39,14.20
2020,05,09,01,41,14.20
2020,05,09,01,42,14.20
2020,05,09,01,43,14.20
2020,05,09,01,44,14.20
2020,05,09,01,46,14.30
2020,05,09,01,47,14.30
2020,05,09,01,48,14.40
2020,05,09,01,49,14.50
2020,05,09,01,51,14.70
2020,05,09,01,52,14.70
2020,05,09,01,53,14.80
2020,05,09,01,54,14.80
2020,05,09,01,56,14.90
2020,05,09,01,57,14.90
2020,05,09,01,58,14.90
2020,05,09,01,59,15.00
2020,05,09,02,01,14.90
2020,05,09,02,02,14.90
2020,05,09,02,03,14.90
2020,05,09,02,04,14.90
2020,05,09,02,06,14.80
2020,05,09,02,07,14.80
2020,05,09,02,08,14.80
2020,05,09,02,09,14.80
2020,05,09,02,10,14.80
2020,05,09,02,11,14.80
2020,05,09,02,12,14.80
2020,05,09,02,13,14.80
2020,05,09,02,14,14.80
2020,05,09,02,15,14.80
2020,05,09,02,16,14.70
2020,05,09,02,17,14.70
2020,05,09,02,18,14.60
2020,05,09,02,19,14.60
2020,05,09,02,20,14.60
2020,05,09,02,21,14.60
2020,05,09,02,22,14.60
2020,05,09,02,23,14.60
2020,05,09,02,24,14.50
2020,05,09,02,25,14.50
2020,05,09,02,26,14.50
2020,05,09,02,27,14.50
2020,05,09,02,28,14.50
2020,05,09,02,29,14.40
2020,05,09,02,30,14.40
2020,05,09,02,31,14.40
2020,05,09,02,32,14.40
2020,05,09,02,33,14.30
2020,05,09,02,34,14.30
2020,05,09,02,35,14.30
2020,05,09,02,36,14.20
2020,05,09,02,37,14.20
2020,05,09,02,38,14.20
2020,05,09,02,39,14.20
2020,05,09,02,40,14.20
2020,05,09,02,41,14.20
2020,05,09,02,42,14.20
2020,05,09,02,43,14.20
2020,05,09,02,44,14.20
2020,05,09,02,45,14.20
2020,05,09,02,46,14.20
2020,05,09,02,47,14.20
2020,05,09,02,48,14.20
2020,05,09,02,49,14.20
2020,05,09,02,50,14.20
2020,05,09,02,51,14.20
2020,05,09,02,52,14.20
2020,05,09,02,53,14.20
2020,05,09,02,54,14.20
2020,05,09,02,55,14.20
2020,05,09,02,56,14.20
2020,05,09,02,57,14.20
2020,05,09,02,58,14.20
2020,05,09,02,59,14.10
2020,05,09,03,00,14.10
2020,05,09,03,01,14.10
2020,05,09,03,02,14.10
2020,05,09,03,03,14.10
2020,05,09,03,04,14.10
2020,05,09,03,05,14.10
2020,05,09,03,06,14.10
2020,05,09,03,07,14.10
2020,05,09,03,08,14.10
2020,05,09,03,09,14.10
2020,05,09,03,10,14.10
2020,05,09,03,11,14.10
2020,05,09,03,12,14.10
2020,05,09,03,13,14.10
2020,05,09,03,14,14.10
2020,05,09,03,15,14.10
2020,05,09,03,16,14.10
2020,05,09,03,17,14.10
2020,05,09,03,18,14.10
2020,05,09,03,19,14.10
2020,05,09,03,20,14.00
2020,05,09,03,21,14.00
2020,05,09,03,22,14.00
2020,05,09,03,23,14.00
2020,05,09,03,24,14.00
2020,05,09,03,25,14.00
2020,05,09,03,26,14.00
2020,05,09,03,27,14.00
2020,05,09,03,28,14.00
2020,05,09,03,29,14.00
2020,05,09,03,30,14.00
2020,05,09,03,31,14.00
2020,05,09,03,32,14.00
2020,05,09,03,33,14.00
2020,05,09,03,34,14.00
2020,05,09,03,35,14.00
2020,05,09,03,36,14.00
2020,05,09,03,37,14.00
2020,05,09,03,38,14.00
2020,05,09,03,39,14.00
2020,05,09,03,40,14.00
2020,05,09,03,41,14.00
2020,05,09,03,42,13.90
2020,05,09,03,43,13.90
2020,05,09,03,44,13.90
2020,05,09,03,45,13.90
2020,05,09,03,46,13.90
2020,05,09,03,47,13.90
2020,05,09,03,48,13.90
2020,05,09,03,49,13.90
2020,05,09,03,50,13.90
2020,05,09,03,51,13.90
2020,05,09,03,52,13.90
2020,05,09,03,53,13.90
2020,05,09,03,54,13.90
2020,05,09,03,55,13.90
2020,05,09,03,56,13.90
2020,05,09,03,57,13.80
2020,05,09,03,58,13.80
2020,05,09,03,59,13.80
2020,05,09,04,00,13.80
2020,05,09,04,01,13.70
2020,05,09,04,02,13.70
2020,05,09,04,03,13.70
2020,05,09,04,04,13.70
2020,05,09,04,05,13.70
2020,05,09,04,06,13.60
2020,05,09,04,07,13.60
2020,05,09,04,08,13.50
2020,05,09,04,09,13.50
2020,05,09,04,10,13.40
2020,05,09,04,11,13.40
2020,05,09,04,12,13.40
2020,05,09,04,13,13.30
2020,05,09,04,14,13.30
2020,05,09,04,15,13.30
2020,05,09,04,16,13.30
2020,05,09,04,17,13.30
2020,05,09,04,18,13.30
2020,05,09,04,19,13.30
2020,05,09,04,20,13.30
2020,05,09,04,21,13.30
2020,05,09,04,22,13.30
2020,05,09,04,24,13.20
2020,05,09,04,26,13.20
2020,05,09,04,27,13.20
2020,05,09,04,28,13.20
2020,05,09,04,29,13.10
2020,05,09,04,31,13.10
2020,05,09,04,32,13.10
2020,05,09,04,33,13.00
2020,05,09,04,34,13.00
2020,05,09,04,36,12.90
2020,05,09,04,37,12.90
2020,05,09,04,38,12.90
2020,05,09,04,39,12.90
2020,05,09,04,41,12.80
2020,05,09,04,42,12.80
2020,05,09,04,43,12.80
2020,05,09,04,44,12.70
2020,05,09,04,46,12.60
2020,05,09,04,47,12.50
2020,05,09,04,48,12.50
2020,05,09,04,49,12.40
2020,05,09,04,51,12.30
2020,05,09,04,52,12.30
2020,05,09,04,53,12.30
2020,05,09,04,54,12.30
2020,05,09,04,56,12.30
2020,05,09,04,57,12.30
2020,05,09,04,58,12.30
2020,05,09,04,59,12.30
2020,05,09,05,01,12.30
2020,05,09,05,02,12.30
2020,05,09,05,03,12.30
2020,05,09,05,04,12.30
2020,05,09,05,06,12.30
2020,05,09,05,07,12.30
2020,05,09,05,08,12.30
2020,05,09,05,09,12.30
2020,05,09,05,11,12.30
2020,05,09,05,12,12.30
2020,05,09,05,13,12.30
2020,05,09,05,14,12.30
2020,05,09,05,16,12.30
2020,05,09,05,17,12.30
2020,05,09,05,18,12.30
2020,05,09,05,19,12.40
2020,05,09,05,21,12.40
2020,05,09,05,22,12.40
2020,05,09,05,23,12.40
2020,05,09,05,24,12.40
2020,05,09,05,26,12.30
2020,05,09,05,27,12.30
2020,05,09,05,28,12.30
2020,05,09,05,29,12.30
2020,05,09,05,31,12.30
2020,05,09,05,32,12.30
2020,05,09,05,33,12.30
2020,05,09,05,34,12.30
2020,05,09,05,36,12.30
2020,05,09,05,37,12.30
2020,05,09,05,38,12.30
2020,05,09,05,39,12.30
2020,05,09,05,41,12.30
2020,05,09,05,42,12.30
2020,05,09,05,43,12.30
2020,05,09,05,44,12.30
2020,05,09,05,46,12.30
2020,05,09,05,47,12.30
2020,05,09,05,48,12.30
2020,05,09,05,49,12.30
2020,05,09,05,51,12.20
2020,05,09,05,52,12.20
2020,05,09,05,53,12.10
2020,05,09,05,54,12.10
2020,05,09,05,55,12.00
2020,05,09,05,56,12.00
2020,05,09,05,57,11.90
2020,05,09,05,58,11.90
2020,05,09,05,59,11.90
2020,05,09,06,00,11.80
2020,05,09,06,01,11.80
2020,05,09,06,02,11.80
2020,05,09,06,03,11.80
2020,05,09,06,04,11.80
2020,05,09,06,06,11.80
2020,05,09,06,07,11.80
2020,05,09,06,08,11.80
2020,05,09,06,09,11.70
2020,05,09,06,10,11.70
2020,05,09,06,11,11.60
2020,05,09,06,12,11.60
2020,05,09,06,13,11.60
2020,05,09,06,14,11.60
2020,05,09,06,15,11.60
2020,05,09,06,16,11.60
2020,05,09,06,17,11.40
2020,05,09,06,18,11.40
2020,05,09,06,19,11.40
2020,05,09,06,20,11.40
2020,05,09,06,21,11.40
2020,05,09,06,22,11.40
2020,05,09,06,23,11.40
2020,05,09,06,24,11.40
2020,05,09,06,25,11.40
2020,05,09,06,26,11.40
2020,05,09,06,27,11.40
2020,05,09,06,28,11.40
2020,05,09,06,29,11.40
2020,05,09,06,30,11.40
2020,05,09,06,32,11.40
2020,05,09,06,33,11.40
2020,05,09,06,34,11.60
2020,05,09,06,35,11.60
2020,05,09,06,36,11.60
2020,05,09,06,37,11.60
2020,05,09,06,38,11.60
2020,05,09,06,39,11.70
2020,05,09,06,40,11.70
2020,05,09,06,41,11.70
2020,05,09,06,42,11.70
2020,05,09,06,43,11.80
2020,05,09,06,44,11.80
2020,05,09,06,45,11.80
2020,05,09,06,46,11.80
2020,05,09,06,47,11.80
2020,05,09,06,48,11.80
2020,05,09,06,49,11.80
2020,05,09,06,50,11.90
2020,05,09,06,51,11.90
2020,05,09,06,52,11.90
2020,05,09,06,53,11.90
2020,05,09,06,54,11.90
2020,05,09,06,55,11.90
2020,05,09,06,56,11.90
2020,05,09,06,57,12.00
2020,05,09,06,58,11.90
2020,05,09,06,59,11.90
2020,05,09,07,00,11.90
2020,05,09,07,01,11.90
2020,05,09,07,02,11.90
2020,05,09,07,03,11.90
2020,05,09,07,04,11.80
2020,05,09,07,05,11.80
2020,05,09,07,06,11.80
2020,05,09,07,07,11.80
2020,05,09,07,08,11.70
2020,05,09,07,09,11.70
2020,05,09,07,10,11.70
2020,05,09,07,11,11.70
2020,05,09,07,12,11.60
2020,05,09,07,13,11.60
2020,05,09,07,14,11.60
2020,05,09,07,15,11.60
2020,05,09,07,16,11.60
2020,05,09,07,17,11.60
2020,05,09,07,18,11.60
2020,05,09,07,19,11.60
2020,05,09,07,20,11.60
2020,05,09,07,21,11.40
2020,05,09,07,22,11.40
2020,05,09,07,23,11.40
2020,05,09,07,24,11.40
2020,05,09,07,25,11.40
2020,05,09,07,26,11.40
2020,05,09,07,27,11.40
2020,05,09,07,28,11.40
2020,05,09,07,29,11.40
2020,05,09,07,30,11.40
2020,05,09,07,31,11.40
2020,05,09,07,32,11.40
2020,05,09,07,33,11.40
2020,05,09,07,34,11.40
2020,05,09,07,35,11.40
2020,05,09,07,36,11.40
2020,05,09,07,37,11.40
2020,05,09,07,38,11.40
2020,05,09,07,39,11.40
2020,05,09,07,40,11.40
2020,05,09,07,41,11.40
2020,05,09,07,42,11.40
2020,05,09,07,43,11.40
2020,05,09,07,44,11.40
2020,05,09,07,45,11.40
2020,05,09,07,46,11.40
2020,05,09,07,47,11.40
2020,05,09,07,48,11.40
2020,05,09,07,49,11.40
2020,05,09,07,50,11.40
2020,05,09,07,51,11.60
2020,05,09,07,52,11.60
2020,05,09,07,53,11.70
2020,05,09,07,54,11.70
2020,05,09,07,55,11.80
2020,05,09,07,56,11.80
2020,05,09,07,57,11.90
2020,05,09,07,58,11.90
2020,05,09,07,59,12.00
2020,05,09,08,00,12.00
2020,05,09,08,01,12.10
2020,05,09,08,02,12.10
2020,05,09,08,03,12.20
2020,05,09,08,04,12.20
2020,05,09,08,05,12.30
2020,05,09,08,06,12.30
2020,05,09,08,07,12.30
2020,05,09,08,08,12.30
2020,05,09,08,09,12.30
2020,05,09,08,10,12.40
2020,05,09,08,11,12.40
2020,05,09,08,12,12.50
2020,05,09,08,13,12.50
2020,05,09,08,14,12.50
2020,05,09,08,15,12.60
2020,05,09,08,16,12.60
2020,05,09,08,17,12.70
2020,05,09,08,18,12.70
2020,05,09,08,19,12.80
2020,05,09,08,20,12.80
2020,05,09,08,21,12.80
2020,05,09,08,22,12.80
2020,05,09,08,24,12.90
2020,05,09,08,26,12.90
2020,05,09,08,27,12.90
2020,05,09,08,28,12.90
2020,05,09,08,29,12.90
2020,05,09,08,31,12.90
2020,05,09,08,32,13.00
2020,05,09,08,33,13.00
2020,05,09,08,34,13.10
2020,05,09,08,36,13.10
2020,05,09,08,37,13.10
2020,05,09,08,38,13.10
2020,05,09,08,39,13.10
2020,05,09,08,41,13.20
2020,05,09,08,42,13.20
2020,05,09,08,43,13.20
2020,05,09,08,44,13.10
2020,05,09,08,46,13.10
2020,05,09,08,47,13.10
2020,05,09,08,48,13.20
2020,05,09,08,49,13.20
2020,05,09,08,51,13.20
2020,05,09,08,52,13.20
2020,05,09,08,53,13.20
2020,05,09,08,54,13.30
2020,05,09,08,56,13.30
2020,05,09,08,57,13.30
2020,05,09,08,58,13.30
2020,05,09,08,59,13.30
2020,05,09,09,01,13.40
2020,05,09,09,02,13.40
2020,05,09,09,03,13.50
2020,05,09,09,04,13.60
2020,05,09,09,06,13.70
2020,05,09,09,07,13.80
2020,05,09,09,08,13.90
2020,05,09,09,09,14.00
2020,05,09,09,11,14.20
2020,05,09,09,12,14.20
2020,05,09,09,13,14.40
2020,05,09,09,14,14.50
2020,05,09,09,16,14.70
2020,05,09,09,17,14.80
2020,05,09,09,18,14.90
2020,05,09,09,19,15.00
2020,05,09,09,21,15.20
2020,05,09,09,22,15.30
2020,05,09,09,23,15.30
2020,05,09,09,24,15.30
2020,05,09,09,26,15.40
2020,05,09,09,27,15.40
2020,05,09,09,28,15.40
2020,05,09,09,29,15.40
2020,05,09,09,31,15.40
2020,05,09,09,32,15.30
2020,05,09,09,33,15.30
2020,05,09,09,34,15.30
2020,05,09,09,36,15.30
2020,05,09,09,37,15.30
2020,05,09,09,38,15.30
2020,05,09,09,39,15.30
2020,05,09,09,41,15.30
2020,05,09,09,42,15.40
2020,05,09,09,43,15.30
2020,05,09,09,44,15.30
2020,05,09,09,46,15.40
2020,05,09,09,47,15.50
2020,05,09,09,48,15.60
2020,05,09,09,49,15.60
2020,05,09,09,51,15.70
2020,05,09,09,52,15.60
2020,05,09,09,53,15.70
2020,05,09,09,54,15.70
2020,05,09,09,55,15.70
2020,05,09,09,56,15.80
2020,05,09,09,57,15.80
2020,05,09,09,58,15.80
2020,05,09,09,59,15.80
2020,05,09,10,00,15.80
2020,05,09,10,01,15.80
2020,05,09,10,02,15.70
2020,05,09,10,03,15.80
2020,05,09,10,04,15.70
2020,05,09,10,06,15.60
2020,05,09,10,07,15.60
2020,05,09,10,08,15.60
2020,05,09,10,09,15.60
2020,05,09,10,10,15.50
2020,05,09,10,11,15.40
2020,05,09,10,12,15.40
2020,05,09,10,13,15.30
2020,05,09,10,14,15.30
2020,05,09,10,15,15.30
2020,05,09,10,16,15.40
2020,05,09,10,17,15.40
2020,05,09,10,18,15.50
2020,05,09,10,19,15.60
2020,05,09,10,20,15.70
2020,05,09,10,21,15.70
2020,05,09,10,22,15.80
2020,05,09,10,23,15.80
2020,05,09,10,24,15.90
2020,05,09,10,25,16.10
2020,05,09,10,26,16.20
2020,05,09,10,27,16.30
2020,05,09,10,28,16.30
2020,05,09,10,29,16.40
2020,05,09,10,30,16.40
2020,05,09,10,31,16.60
2020,05,09,10,32,16.70
2020,05,09,10,33,16.70
2020,05,09,10,34,16.70
2020,05,09,10,35,16.80
2020,05,09,10,36,16.80
2020,05,09,10,37,16.90
2020,05,09,10,38,17.00
2020,05,09,10,39,17.00
2020,05,09,10,40,17.10
2020,05,09,10,41,17.20
2020,05,09,10,42,17.10
2020,05,09,10,43,17.10
2020,05,09,10,44,17.10
2020,05,09,10,45,17.00
2020,05,09,10,46,16.90
2020,05,09,10,47,16.80
2020,05,09,10,48,16.70
2020,05,09,10,49,16.60
2020,05,09,10,50,16.40
2020,05,09,10,51,16.40
2020,05,09,10,52,16.40
2020,05,09,10,53,16.40
2020,05,09,10,54,16.40
2020,05,09,10,55,16.40
2020,05,09,10,56,16.40
2020,05,09,10,57,16.60
2020,05,09,10,58,16.60
2020,05,09,10,59,16.70
2020,05,09,11,00,16.70
2020,05,09,11,01,16.90
2020,05,09,11,02,17.00
2020,05,09,11,03,17.20
2020,05,09,11,04,17.30
2020,05,09,11,05,17.40
2020,05,09,11,06,17.50
2020,05,09,11,07,17.70
2020,05,09,11,08,17.90
2020,05,09,11,09,17.90
2020,05,09,11,10,18.20
2020,05,09,11,11,18.20
2020,05,09,11,12,18.30
2020,05,09,11,13,18.40
2020,05,09,11,14,18.60
2020,05,09,11,15,18.70
2020,05,09,11,16,18.80
2020,05,09,11,17,18.90
2020,05,09,11,18,18.90
2020,05,09,11,19,18.90
2020,05,09,11,20,19.10
2020,05,09,11,21,19.10
2020,05,09,11,22,19.10
2020,05,09,11,23,19.10
2020,05,09,11,24,19.10
2020,05,09,11,25,19.10
2020,05,09,11,26,19.10
2020,05,09,11,27,18.90
2020,05,09,11,28,19.10
2020,05,09,11,29,19.10
2020,05,09,11,30,19.10
2020,05,09,11,31,19.10
2020,05,09,11,32,19.20
2020,05,09,11,33,19.30
2020,05,09,11,34,19.30
2020,05,09,11,35,19.30
2020,05,09,11,36,19.30
2020,05,09,11,37,19.20
2020,05,09,11,38,19.10
2020,05,09,11,39,19.10
2020,05,09,11,40,18.90
2020,05,09,11,41,18.90
2020,05,09,11,42,18.90
2020,05,09,11,43,18.90
2020,05,09,11,44,18.90
2020,05,09,11,45,19.10
2020,05,09,11,46,19.10
2020,05,09,11,47,19.10
2020,05,09,11,48,19.10
2020,05,09,11,49,19.10
2020,05,09,11,50,19.10
2020,05,09,11,51,19.10
2020,05,09,11,52,19.10
2020,05,09,11,53,18.90
2020,05,09,11,54,18.90
2020,05,09,11,55,18.80
2020,05,09,11,56,18.80
2020,05,09,11,57,18.80
2020,05,09,11,58,18.80
2020,05,09,11,59,18.80
2020,05,09,12,00,18.90
2020,05,09,12,01,18.90
2020,05,09,12,02,18.90
2020,05,09,12,03,18.90
2020,05,09,12,04,19.10
2020,05,09,12,05,19.10
2020,05,09,12,06,19.10
2020,05,09,12,07,19.10
2020,05,09,12,08,19.20
2020,05,09,12,09,19.20
2020,05,09,12,11,19.10
2020,05,09,12,13,19.10
2020,05,09,12,14,19.10
2020,05,09,12,16,19.10
2020,05,09,12,17,19.10
2020,05,09,12,18,19.10
2020,05,09,12,19,18.90
2020,05,09,12,21,18.90
2020,05,09,12,22,18.80
2020,05,09,12,23,18.80
2020,05,09,12,24,18.80
2020,05,09,12,26,18.70
2020,05,09,12,27,18.70
2020,05,09,12,28,18.60
2020,05,09,12,29,18.60
2020,05,09,12,30,18.50
2020,05,09,12,32,18.50
2020,05,09,12,33,18.50
2020,05,09,12,34,18.50
2020,05,09,12,36,18.70
2020,05,09,12,37,18.80
2020,05,09,12,38,18.90
2020,05,09,12,39,19.10
2020,05,09,12,41,19.20
2020,05,09,12,42,19.30
2020,05,09,12,43,19.50
2020,05,09,12,44,19.70
2020,05,09,12,46,19.90
2020,05,09,12,47,19.90
2020,05,09,12,48,19.90
2020,05,09,12,49,20.10
2020,05,09,12,51,20.20
2020,05,09,12,52,20.20
2020,05,09,12,53,20.20
2020,05,09,12,54,20.20
2020,05,09,12,56,20.10
2020,05,09,12,57,19.90
2020,05,09,12,58,19.80
2020,05,09,12,59,19.60
2020,05,09,13,01,19.40
2020,05,09,13,02,19.30
2020,05,09,13,03,19.20
2020,05,09,13,04,19.10
2020,05,09,13,06,19.10
2020,05,09,13,07,19.10
2020,05,09,13,08,19.20
2020,05,09,13,09,19.30
2020,05,09,13,11,19.40
2020,05,09,13,12,19.40
2020,05,09,13,13,19.50
2020,05,09,13,14,19.50
2020,05,09,13,16,19.70
2020,05,09,13,17,19.70
2020,05,09,13,18,19.70
2020,05,09,13,19,19.70
2020,05,09,13,21,19.60
2020,05,09,13,22,19.60
2020,05,09,13,23,19.60
2020,05,09,13,24,19.60
2020,05,09,13,26,19.60
2020,05,09,13,27,19.60
2020,05,09,13,28,19.70
2020,05,09,13,29,19.70
2020,05,09,13,31,19.70
2020,05,09,13,32,19.70
2020,05,09,13,33,19.60
2020,05,09,13,34,19.60
2020,05,09,13,36,19.40
2020,05,09,13,37,19.30
2020,05,09,13,38,19.30
2020,05,09,13,39,19.30
2020,05,09,13,41,19.30
2020,05,09,13,42,19.40
2020,05,09,13,43,19.40
2020,05,09,13,44,19.50
2020,05,09,13,45,19.60
2020,05,09,13,46,19.70
2020,05,09,13,47,19.80
2020,05,09,13,48,19.90
2020,05,09,13,49,19.90
2020,05,09,13,50,20.20
2020,05,09,13,51,20.20
2020,05,09,13,52,20.20
2020,05,09,13,53,20.30
2020,05,09,13,54,20.30
2020,05,09,13,55,20.40
2020,05,09,13,56,20.40
2020,05,09,13,57,20.30
2020,05,09,13,58,20.30
2020,05,09,13,59,20.30
2020,05,09,14,00,20.20
2020,05,09,14,01,20.20
2020,05,09,14,02,20.20
2020,05,09,14,03,20.10
2020,05,09,14,04,19.90
2020,05,09,14,05,19.90
2020,05,09,14,06,19.90
2020,05,09,14,07,19.90
2020,05,09,14,08,19.90
2020,05,09,14,09,19.90
2020,05,09,14,10,19.80
2020,05,09,14,11,19.80
2020,05,09,14,12,19.80
2020,05,09,14,13,19.80
2020,05,09,14,14,19.80
2020,05,09,14,15,19.80
2020,05,09,14,16,19.90
2020,05,09,14,17,19.90
2020,05,09,14,18,20.10
2020,05,09,14,19,20.10
2020,05,09,14,20,20.20
2020,05,09,14,21,20.20
2020,05,09,14,22,20.30
2020,05,09,14,23,20.50
2020,05,09,14,24,20.60
2020,05,09,14,25,20.80
2020,05,09,14,26,20.90
2020,05,09,14,27,21.00
2020,05,09,14,28,21.00
2020,05,09,14,29,21.00
2020,05,09,14,30,21.00
2020,05,09,14,31,21.00
2020,05,09,14,32,21.00
2020,05,09,14,33,21.00
2020,05,09,14,34,21.00
2020,05,09,14,35,21.10
2020,05,09,14,36,21.10
2020,05,09,14,37,21.10
2020,05,09,14,38,21.10
2020,05,09,14,39,21.10
2020,05,09,14,40,21.10
2020,05,09,14,41,21.10
2020,05,09,14,42,21.10
2020,05,09,14,43,21.10
2020,05,09,14,44,21.20
2020,05,09,14,45,21.20
2020,05,09,14,46,21.30
2020,05,09,14,47,21.30
2020,05,09,14,48,21.30
2020,05,09,14,49,21.30
2020,05,09,14,50,21.30
2020,05,09,14,51,21.30
2020,05,09,14,52,21.30
2020,05,09,14,53,21.20
2020,05,09,14,54,21.20
2020,05,09,14,55,21.20
2020,05,09,14,56,21.20
2020,05,09,14,57,21.30
2020,05,09,14,58,21.30
2020,05,09,14,59,21.40
2020,05,09,15,00,21.60
2020,05,09,15,01,21.60
2020,05,09,15,02,21.60
2020,05,09,15,03,21.70
2020,05,09,15,04,21.70
2020,05,09,15,05,21.80
2020,05,09,15,06,21.90
2020,05,09,15,07,21.90
2020,05,09,15,08,21.90
2020,05,09,15,09,22.00
2020,05,09,15,10,22.00
2020,05,09,15,11,22.00
2020,05,09,15,12,22.00
2020,05,09,15,13,22.00
2020,05,09,15,14,22.00
2020,05,09,15,15,22.00
2020,05,09,15,16,22.00
2020,05,09,15,17,21.90
2020,05,09,15,18,21.90
2020,05,09,15,19,21.70
2020,05,09,15,20,21.60
2020,05,09,15,21,21.60
2020,05,09,15,22,21.30
2020,05,09,15,23,21.30
2020,05,09,15,24,21.20
2020,05,09,15,25,21.10
2020,05,09,15,26,21.00
2020,05,09,15,27,20.80
2020,05,09,15,28,20.70
2020,05,09,15,29,20.60
2020,05,09,15,30,20.50
2020,05,09,15,31,20.30
2020,05,09,15,32,20.20
2020,05,09,15,33,20.20
2020,05,09,15,34,19.90
2020,05,09,15,35,19.90
2020,05,09,15,36,19.70
2020,05,09,15,37,19.60
2020,05,09,15,38,19.50
2020,05,09,15,39,19.50
2020,05,09,15,40,19.40
2020,05,09,15,41,19.30
2020,05,09,15,42,19.30
2020,05,09,15,43,19.40
2020,05,09,15,44,19.40
2020,05,09,15,45,19.50
2020,05,09,15,46,19.50
2020,05,09,15,47,19.60
2020,05,09,15,48,19.70
2020,05,09,15,49,19.80
2020,05,09,15,50,19.80
2020,05,09,15,51,19.90
2020,05,09,15,52,19.90
2020,05,09,15,53,20.10
2020,05,09,15,54,20.10
2020,05,09,15,55,20.10
2020,05,09,15,57,20.20
2020,05,09,15,58,20.10
2020,05,09,15,59,20.10
2020,05,09,16,01,19.90
2020,05,09,16,02,19.80
2020,05,09,16,03,19.70
2020,05,09,16,04,19.60
2020,05,09,16,06,19.50
2020,05,09,16,07,19.40
2020,05,09,16,08,19.30
2020,05,09,16,09,19.30
2020,05,09,16,11,19.20
2020,05,09,16,12,19.20
2020,05,09,16,13,19.10
2020,05,09,16,14,19.10
2020,05,09,16,16,19.10
2020,05,09,16,17,18.90
2020,05,09,16,18,18.90
2020,05,09,16,19,18.80
2020,05,09,16,21,18.80
2020,05,09,16,22,18.70
2020,05,09,16,23,18.70
2020,05,09,16,24,18.70
2020,05,09,16,26,18.70
2020,05,09,16,27,18.70
2020,05,09,16,28,18.80
2020,05,09,16,29,18.90
2020,05,09,16,31,18.90
2020,05,09,16,32,18.90
2020,05,09,16,33,19.10
2020,05,09,16,34,19.10
2020,05,09,16,36,19.20
2020,05,09,16,37,19.40
2020,05,09,16,38,19.50
2020,05,09,16,39,19.60
2020,05,09,16,41,19.80
2020,05,09,16,42,19.90
2020,05,09,16,43,19.90
2020,05,09,16,44,20.10
2020,05,09,16,46,20.20
2020,05,09,16,47,20.20
2020,05,09,16,48,20.20
2020,05,09,16,49,20.20
2020,05,09,16,51,20.20
2020,05,09,16,52,20.20
2020,05,09,16,53,20.20
2020,05,09,16,54,20.30
2020,05,09,16,56,20.40
2020,05,09,16,57,20.40
2020,05,09,16,58,20.50
2020,05,09,16,59,20.50
2020,05,09,17,01,20.50
2020,05,09,17,02,20.50
2020,05,09,17,03,20.40
2020,05,09,17,04,20.40
2020,05,09,17,06,20.30
2020,05,09,17,07,20.30
2020,05,09,17,08,20.20
2020,05,09,17,09,20.20
2020,05,09,17,10,19.90
2020,05,09,17,11,19.80
2020,05,09,17,12,19.70
2020,05,09,17,13,19.50
2020,05,09,17,14,19.30
2020,05,09,17,15,19.20
2020,05,09,17,16,19.10
2020,05,09,17,17,18.90
2020,05,09,17,18,18.90
2020,05,09,17,19,18.80
2020,05,09,17,21,18.70
2020,05,09,17,22,18.60
2020,05,09,17,23,18.50
2020,05,09,17,24,18.50
2020,05,09,17,25,18.40
2020,05,09,17,26,18.40
2020,05,09,17,27,18.40
2020,05,09,17,28,18.30
2020,05,09,17,29,18.30
2020,05,09,17,30,18.30
2020,05,09,17,31,18.30
2020,05,09,17,32,18.30
2020,05,09,17,33,18.30
2020,05,09,17,34,18.40
2020,05,09,17,35,18.50
2020,05,09,17,36,18.60
2020,05,09,17,37,18.70
2020,05,09,17,38,18.70
2020,05,09,17,39,18.70
2020,05,09,17,40,18.70
2020,05,09,17,41,18.80
2020,05,09,17,42,18.80
2020,05,09,17,43,18.80
2020,05,09,17,44,18.90
2020,05,09,17,45,18.90
2020,05,09,17,46,19.10
2020,05,09,17,47,19.10
2020,05,09,17,48,19.30
2020,05,09,17,49,19.40
2020,05,09,17,50,19.50
2020,05,09,17,51,19.60
2020,05,09,17,52,19.80
2020,05,09,17,53,19.80
2020,05,09,17,54,19.90
2020,05,09,17,55,19.90
2020,05,09,17,56,19.90
2020,05,09,17,57,19.90
2020,05,09,17,58,19.90
2020,05,09,17,59,19.90
2020,05,09,18,00,19.90
2020,05,09,18,01,19.90
2020,05,09,18,02,19.80
2020,05,09,18,03,19.80
2020,05,09,18,04,19.70
2020,05,09,18,05,19.70
2020,05,09,18,06,19.60
2020,05,09,18,07,19.60
2020,05,09,18,08,19.60
2020,05,09,18,09,19.50
2020,05,09,18,10,19.50
2020,05,09,18,11,19.40
2020,05,09,18,12,19.40
2020,05,09,18,13,19.40
2020,05,09,18,14,19.30
2020,05,09,18,15,19.30
2020,05,09,18,16,19.30
2020,05,09,18,17,19.30
2020,05,09,18,18,19.30
2020,05,09,18,19,19.30
2020,05,09,18,20,19.30
2020,05,09,18,21,19.40
2020,05,09,18,22,19.40
2020,05,09,18,23,19.40
2020,05,09,18,24,19.40
2020,05,09,18,25,19.50
2020,05,09,18,26,19.50
2020,05,09,18,27,19.50
2020,05,09,18,28,19.40
2020,05,09,18,29,19.40
2020,05,09,18,30,19.30
2020,05,09,18,32,19.30
2020,05,09,18,33,19.20
2020,05,09,18,34,19.20
2020,05,09,18,35,19.20
2020,05,09,18,36,19.30
2020,05,09,18,37,19.30
2020,05,09,18,38,19.30
2020,05,09,18,39,19.30
2020,05,09,18,40,19.40
2020,05,09,18,41,19.40
2020,05,09,18,42,19.40
2020,05,09,18,43,19.30
2020,05,09,18,44,19.20
2020,05,09,18,45,19.10
2020,05,09,18,46,19.10
2020,05,09,18,47,19.10
2020,05,09,18,48,19.10
2020,05,09,18,49,19.10
2020,05,09,18,50,19.10
2020,05,09,18,51,19.10
2020,05,09,18,52,19.20
2020,05,09,18,53,19.20
2020,05,09,18,54,19.20
2020,05,09,18,55,19.30
2020,05,09,18,56,19.30